weather.gov     
National Weather Service

Regional Weather Roundup
NWS Homepage
This page is being discontinued on March 12, 2014.
The same data is available at this site. Please update your bookmarks.
Thank you, and we apologize for the inconvenience.
Please send an email to SR-SRH.Webmaster@noaa.gov with any concerns.


Current Version
Previous Version:    01  02  03  04  05  06  07  08  09  10  11  12  13  14  15  16  17  18  19  20  21  22  23  24  25  26  27  28  29  30  
   31  32  33  34  35  36  37  38  39  40  41  42  43  44  45  46  47  48  49  50  51  52  53  54  55  56  57  58  59  60  
[Printable]
293
ASUS44 KFWD 291010
RWRTX
NORTH TEXAS HOURLY WEATHER ROUNDUP
NATIONAL WEATHER SERVICE FORT WORTH TX
500 AM CDT FRI AUG 29 2014

NOTE: "FAIR" INDICATES FEW OR NO CLOUDS BELOW 12,000 FEET WITH NO
SIGNIFICANT WEATHER AND/OR OBSTRUCTIONS TO VISIBILITY.

TXZ118-119-291100-
DALLAS/FORT WORTH METROPLEX

CITY           SKY/WX    TMP DP  RH WIND       PRES   REMARKS
DFW AIRPORT    CLOUDY    72  68  87 NW9       29.94S
DALLAS LOVE    CLOUDY    73  66  78 N9        29.93F
FTW MEACHAM    CLOUDY    71  67  87 N6        29.95S
DAL-EXECUTIVE  CLOUDY    74  65  73 NW13      29.93S
FTW-ALLIANCE   LGT RAIN  69  67  93 N7        29.94S
FTW-NAS-JRB    CLOUDY    73  66  78 NW6       30.00S
FTW-SPINKS     CLOUDY    70  67  92 E3        29.97S VSB 1
ARLINGTON      CLOUDY    73  65  75 NW13      29.95R
GRAND PRAIRIE  CLOUDY    73  65  75 NW8       29.95S
ADDISON        CLOUDY    73  65  78 N3        29.95F
MESQUITE       CLOUDY    76  71  83 CALM      29.92F
LANCASTER      CLOUDY    78  69  74 CALM      29.93F
$$

TXZ091>094-102>105-117-120-121-131>134-291100-
NORTH CENTRAL TEXAS

CITY           SKY/WX    TMP DP  RH WIND       PRES   REMARKS
SHRMAN/DENISON CLOUDY    71  67  88 W3        29.96R
GAINESVILLE    RAIN      67  66  96 SE5       29.97R
BOWIE          CLOUDY    68  68  98 E7        29.92S
BRIDGEPORT     TSTM      69  69 100 CALM      29.96R
DECATUR        RAIN      68  67  96 CALM      29.94F
DENTON         LGT RAIN  69  67  93 NW9       29.95F
MCKINNEY       MOCLDY    72  66  81 NW5       29.93S
GREENVILLE     CLOUDY    77  70  78 CALM      29.93S
ROCKWALL       CLOUDY    76  67  73 NW7       29.92S
TERRELL        RAIN      79  74  84 CALM      29.92S
WAXAHACHIE     CLOUDY    77  68  74 SW5       29.94S
CLEBURNE       LGT RAIN  70  70 100 N12G17    29.96F
GRANBURY       RAIN      71  68  89 CALM      29.97F
$$

TXZ083>090-098>101-113>116-127>130-139>142-154-155-291100-
WESTERN NORTH TEXAS

CITY           SKY/WX    TMP DP  RH WIND       PRES   REMARKS
WICHITA FALLS  CLOUDY    69  67  93 S5        29.90F
WF-KICKAPOO    CLOUDY    69  68  96 SW5       29.92S
VERNON         CLOUDY    69  65  88 CALM      29.93S
ABILENE        CLOUDY    70  69  97 SE12      29.92R
BRECKENRIDGE   CLOUDY    70  68  93 S5        29.92R
GRAHAM         CLOUDY    69  67  94 SE8       29.89F
MINERAL WELLS  RAIN      69  68  96 S9        29.94S
STEPHENVILLE   CLOUDY    69  66  92 E7        29.97F
COMANCHE       TSTM      69  68  98 SE6       29.95F
BROWNWOOD      LGT RAIN  68  66  94 S3        29.94F
COLEMAN        TSTM      70  67  90 SE18      29.90F
BRADY          CLOUDY    75  70  83 E7        29.95S
$$

TXZ143>147-156>162-174-175-291100-
CENTRAL TEXAS

CITY           SKY/WX    TMP DP  RH WIND       PRES   REMARKS
WACO           MOCLDY    78  70  76 W7        29.93R
WACO-MCGREGOR  PTCLDY    75  66  73 NW6       29.94R
HILLSBORO      CLOUDY    78  69  74 CALM      29.93F
CORSICANA      CLOUDY    78  71  79 S8        29.92F
MEXIA          CLOUDY    75  72  89 SE3       29.92R
HEARNE           N/A     74  71  89 CALM      29.91S
CAMERON        CLOUDY    76  71  85 CALM      29.91S
TEMPLE         CLEAR     75  66  73 SE7       29.91S
KILLEEN        PTCLDY    75  72  88 SE5       29.91F
KILLEEN-SKYLRK CLEAR     75  66  73 SE6       29.90S
FORT HOOD      CLEAR     77  71  82 SE5       29.91F
GATESVILLE     CLOUDY    75  70  83 N5        29.97R
LAMPASAS       PTCLDY    76  72  89 N6        29.94R
$$

TXZ095>097-106>112-122>126-135>138-148>153-164>167-291100-
EAST TEXAS

CITY           SKY/WX    TMP DP  RH WIND       PRES   REMARKS
PARIS          PTCLDY    73  64  73 CALM      29.93S
SULPHUR SPRNGS CLOUDY    78  71  77 W3        29.95S
CLARKSVILLE    PTCLDY    75  72  90 CALM      29.93S
MOUNT PLEASANT MOCLDY    75  72  90 CALM      29.94S
GILMER         CLOUDY    79  73  83 SW5       29.96R
MINEOLA        MOCLDY    79  73  83 SE5       29.94R
TYLER          CLOUDY    77  73  87 S6        29.93R
LONGVIEW       CLOUDY    78  72  81 S5        29.93R
MARSHALL       MOCLDY    78  74  86 CALM      29.95S
ATHENS         CLOUDY    73  72  94 SE3       29.92S
PALESTINE      MOCLDY    76  74  95 E3        29.94R
JACKSONVILLE   PTCLDY    76  74  93 S3        29.96R
HENDERSON      MOCLDY    74  73  95 CALM      29.94R
NACOGDOCHES    CLEAR     72  70  94 CALM      29.93S
LUFKIN         PTCLDY    76  72  87 E5        29.91S
$$

SUPPLEMENTAL OBSERVATIONS (CENTRAL)

CITY           SKY/WX    TMP DP  RH WIND       PRES   REMARKS
CADDO GRASSLND   N/A     72  64  78 NW2         N/A
PAT MAYSE LAKE   N/A     75  66  73 SW2         N/A
GREENVILLE       N/A     75  70  83 S2          N/A
CEDAR HILL       N/A     72  66  83 NW5G13      N/A
PALESTINE        N/A     73  72  94 E1          N/A
MCGREGOR         N/A     75  70  83 W1          N/A
TEMPLE           N/A     75  70  83 SE2         N/A
$$

SUPPLEMENTAL OBSERVATIONS (WEST)

CITY           SKY/WX    TMP DP  RH WIND       PRES   REMARKS
POSSUM KINGDOM   N/A     68  64  88 SE8G18      N/A
LBJ GRASSLAND    N/A     70  66  88 E5          N/A
GRANBURY         N/A     70  64  83 VRB1        N/A
HAMBY            N/A     72  66  83 SE6G20      N/A
IVIE RESERVOIR   N/A     73  66  78 E15G25      N/A
COLORADO BEND    N/A     75  70  83 N1G15       N/A
$$

SUPPLEMENTAL OBSERVATIONS (EAST)

CITY           SKY/WX    TMP DP  RH WIND       PRES   REMARKS
LUFKIN           N/A     75  72  88 MISG        N/A
N SABINE NF      N/A     72  68  88 MISG        N/A
$$

SUPPLEMENTAL OBSERVATIONS ARE A COLLECTION OF AUTOMATED INSTRUMENTS
THAT ARE MAINTAINED BY A VARIETY OF FEDERAL AND STATE AGENCIES.
CERTAIN ELEMENTS...SUCH AS HUMIDITY VALUES AND SUSTAINED WIND
SPEEDS...MAY BE APPROXIMATED.





U.S. Dept. of Commerce
NOAA National Weather Service
1325 East West Highway
Silver Spring, MD 20910
E-mail: w-nws.webmaster@noaa.gov
Page last modified: May 16, 2007
NATIONAL WEATHER SERVICE: for Safety, for Work, for Fun - FOR LIFE